Location: Tucker Creek Observatory
(37.5564°N, 90.1751°W)
Time: 02:11:10
(UTC-05:00)

N. Korean satellite - Visible Passes

Search period start: 26 September 2018 00:00
Search period end: 06 October 2018 00:00
Orbit: 458 x 511 km, 97.2° (Epoch: 24 September)

Date Brightness Start Highest point End Pass type
(mag) Time Alt. Az. Time Alt. Az. Time Alt. Az.
28 Sep 10.4 19:49:07 10° WSW 19:50:05 11° W 19:51:04 10° WNW visible
29 Sep 9.5 19:22:43 10° SSW 19:25:32 22° W 19:28:26 10° NW visible
01 Oct 10.2 06:27:22 10° NE 06:29:40 16° E 06:31:58 10° SE visible
02 Oct 10.2 19:44:27 10° WSW 19:46:02 12° W 19:47:37 10° WNW visible
03 Oct 9.3 19:18:29 10° SSW 19:21:30 25° W 19:24:34 10° NW visible
05 Oct 10.3 06:23:37 10° ENE 06:25:36 14° E 06:27:35 10° SE visible
